Weather History for Telluride, CO

Change the Weather History Date:

Tuesday, April 8, 2014

  Actual Average Record
Temperature  
Mean Temperature 40 °F -  
Max Temperature 51 °F 42 °F 57 °F (2012)
Min Temperature 28 °F 23 °F 8 °F (2003)
Degree Days  
Heating Degree Days 26    
Moisture  
Dew Point 20 °F    
Average Humidity 51    
Maximum Humidity 74    
Minimum Humidity 22    
Precipitation  
Precipitation 0.00 in - - ()
Sea Level Pressure  
Sea Level Pressure 30.39 in    
Wind  
Wind Speed 5 mph (SE)    
Max Wind Speed 9 mph    
Max Gust Speed 20 mph    
Visibility 10 miles    
Events      
Averages and records for this station are not official NWS values.
T = Trace of Precipitation, MM = Missing Value Source: NWS Daily Summary

Daily Weather History Graph

Daily Weather History Graph

Search for Another Location

Airport:

Trip Planner

Search our weather history database for the weather conditions in past years. The results will help you decide how hot, cold, wet, or windy it might be!

Date:

Astronomy

Apr. 08, 2014 Rise Set
Actual Time 6:46 AM MDT 7:41 PM MDT
Civil Twilight 6:19 AM MDT 8:08 PM MDT
Nautical Twilight 5:47 AM MDT 8:39 PM MDT
Astronomical Twilight 5:14 AM MDT 9:12 PM MDT
Moon 1:43 PM MDT (4/8) 2:55 AM MDT (4/8)
Length of Visible Light 13h 48m
Length of Day
12h 54m
Waxing Gibbous, 63% of the Moon is Illuminated
Apr 8
Waxing Gibbous
Apr 15
Full
Apr 22
Last Quarter
Apr 29
New
May 6
First Quarter

Hourly Weather History & Observations

Time (MDT) Temp. Windchill Dew Point Humidity Pressure Visibility Wind Dir Wind Speed Gust Speed Precip Events Conditions
12:17 AM 30.2 °F 23.4 °F 21.2 °F 69% 30.38 in 10.0 mi ESE 6.9 mph - N/A   Clear
12:37 AM 30.2 °F 23.4 °F 21.2 °F 69% 30.38 in 10.0 mi East 6.9 mph - N/A   Clear
12:57 AM 30.2 °F 25.4 °F 21.2 °F 69% 30.39 in 10.0 mi ESE 4.6 mph - N/A   Clear
1:17 AM 30.2 °F 26.7 °F 21.2 °F 69% 30.38 in 10.0 mi SE 3.5 mph - N/A   Clear
1:37 AM 30.2 °F - 21.2 °F 69% 30.38 in 10.0 mi Calm Calm - N/A   Clear
1:57 AM 30.2 °F - 21.2 °F 69% 30.38 in 10.0 mi Calm Calm - N/A   Clear
2:17 AM 28.4 °F 23.3 °F 21.2 °F 74% 30.37 in 10.0 mi ESE 4.6 mph - N/A   Clear
2:57 AM 28.4 °F 24.6 °F 21.2 °F 74% 30.37 in 10.0 mi ESE 3.5 mph - N/A   Clear
3:17 AM 28.4 °F 22.2 °F 21.2 °F 74% 30.37 in 10.0 mi ESE 5.8 mph - N/A   Clear
3:37 AM 28.4 °F 23.3 °F 21.2 °F 74% 30.37 in 10.0 mi ESE 4.6 mph - N/A   Clear
3:57 AM 28.4 °F 22.2 °F 19.4 °F 69% 30.37 in 10.0 mi SE 5.8 mph - N/A   Clear
4:17 AM 28.4 °F - 19.4 °F 69% 30.37 in 10.0 mi Calm Calm - N/A   Clear
4:37 AM 28.4 °F 22.2 °F 21.2 °F 74% 30.37 in 10.0 mi SE 5.8 mph - N/A   Clear
4:57 AM 28.4 °F 23.3 °F 19.4 °F 69% 30.37 in 10.0 mi ESE 4.6 mph - N/A   Clear
5:17 AM 28.4 °F 22.2 °F 21.2 °F 74% 30.37 in 10.0 mi East 5.8 mph - N/A   Clear
5:37 AM 28.4 °F - 19.4 °F 69% 30.37 in 10.0 mi Calm Calm - N/A   Clear
5:57 AM 28.4 °F 23.3 °F 19.4 °F 69% 30.37 in 10.0 mi SE 4.6 mph - N/A   Clear
6:17 AM 28.4 °F 24.6 °F 19.4 °F 69% 30.37 in 10.0 mi East 3.5 mph - N/A   Clear
6:37 AM 28.4 °F - 19.4 °F 69% 30.37 in 10.0 mi Calm Calm - N/A   Clear
6:57 AM 28.4 °F 23.3 °F 19.4 °F 69% 30.37 in 10.0 mi ESE 4.6 mph - N/A   Clear
7:17 AM 28.4 °F 22.2 °F 19.4 °F 69% 30.38 in 10.0 mi SE 5.8 mph - N/A   Clear
7:37 AM 28.4 °F 22.2 °F 21.2 °F 74% 30.39 in 10.0 mi ESE 5.8 mph - N/A   Clear
7:57 AM 30.2 °F 24.3 °F 21.2 °F 69% 30.40 in 10.0 mi SE 5.8 mph - N/A   Clear
8:18 AM 32.0 °F 28.7 °F 21.2 °F 64% 30.41 in 10.0 mi ESE 3.5 mph - N/A   Clear
8:37 AM 33.8 °F - 21.2 °F 60% 30.41 in 10.0 mi Calm Calm - N/A   Clear
8:57 AM 35.6 °F 31.7 °F 21.2 °F 56% 30.41 in 10.0 mi SE 4.6 mph - N/A   Clear
9:17 AM 37.4 °F 34.9 °F 21.2 °F 52% 30.41 in 10.0 mi ESE 3.5 mph - N/A   Clear
9:37 AM 37.4 °F - 23.0 °F 56% 30.42 in 10.0 mi Calm Calm - N/A   Clear
10:17 AM 42.8 °F - 21.2 °F 42% 30.42 in 10.0 mi Calm Calm - N/A   Clear
10:37 AM 42.8 °F - 19.4 °F 39% 30.42 in 10.0 mi Calm Calm - N/A   Clear
10:57 AM 44.6 °F 43.1 °F 17.6 °F 34% 30.43 in 10.0 mi West 3.5 mph - N/A   Clear
11:17 AM 44.6 °F 41.4 °F 17.6 °F 34% 30.43 in 10.0 mi West 5.8 mph - N/A   Clear
11:37 AM 46.4 °F 45.2 °F 19.4 °F 34% 30.43 in 10.0 mi South 3.5 mph - N/A   Clear
12:37 PM 46.4 °F 42.4 °F 17.6 °F 32% 30.42 in 10.0 mi South 8.1 mph - N/A   Clear
12:57 PM 48.2 °F - 17.6 °F 30% 30.42 in 10.0 mi West 6.9 mph - N/A   Clear
1:17 PM 48.2 °F - 19.4 °F 32% 30.42 in 10.0 mi SSW 8.1 mph - N/A   Clear
1:37 PM 48.2 °F - 17.6 °F 30% 30.42 in 10.0 mi SW 9.2 mph - N/A   Clear
1:57 PM 48.2 °F - 17.6 °F 30% 30.42 in 10.0 mi SSW 6.9 mph - N/A   Clear
2:17 PM 50.0 °F - 15.8 °F 26% 30.41 in 10.0 mi WSW 8.1 mph - N/A   Clear
3:17 PM 51.8 °F - 14.0 °F 22% 30.40 in 10.0 mi NW 8.1 mph 19.6 mph N/A   Clear
3:37 PM 51.8 °F - 17.6 °F 26% 30.39 in 10.0 mi Calm Calm - N/A   Clear
3:57 PM 51.8 °F - 14.0 °F 22% 30.39 in 10.0 mi Calm Calm - N/A   Clear
4:17 PM 51.8 °F - 15.8 °F 24% 30.39 in 10.0 mi Calm Calm - N/A   Clear
4:37 PM 51.8 °F - 17.6 °F 26% 30.39 in 10.0 mi WNW 4.6 mph - N/A   Clear
4:57 PM 51.8 °F - 17.6 °F 26% 30.38 in 10.0 mi WSW 4.6 mph - N/A   Clear
5:38 PM 51.8 °F - 17.6 °F 26% 30.38 in 10.0 mi West 3.5 mph - N/A   Clear
5:57 PM 51.8 °F - 17.6 °F 26% 30.38 in 10.0 mi West 4.6 mph - N/A   Clear
6:17 PM 51.8 °F - 19.4 °F 28% 30.38 in 10.0 mi West 5.8 mph - N/A   Clear
6:37 PM 51.8 °F - 19.4 °F 28% 30.38 in 10.0 mi West 6.9 mph - N/A   Clear
6:57 PM 51.8 °F - 19.4 °F 28% 30.38 in 10.0 mi West 4.6 mph - N/A   Clear
7:17 PM 50.0 °F - 19.4 °F 30% 30.38 in 10.0 mi Calm Calm - N/A   Clear
7:37 PM 46.4 °F - 19.4 °F 34% 30.39 in 10.0 mi Calm Calm - N/A   Clear
7:57 PM 46.4 °F - 21.2 °F 37% 30.39 in 10.0 mi Calm Calm - N/A   Clear
8:17 PM 44.6 °F 42.2 °F 23.0 °F 43% 30.39 in 10.0 mi ESE 4.6 mph - N/A   Clear
8:37 PM 42.8 °F 38.0 °F 24.8 °F 49% 30.40 in 10.0 mi East 8.1 mph - N/A   Clear
8:57 PM 42.8 °F 39.3 °F 24.8 °F 49% 30.41 in 10.0 mi SE 5.8 mph - N/A   Clear
9:17 PM 42.8 °F 39.3 °F 24.8 °F 49% 30.41 in 10.0 mi ESE 5.8 mph - N/A   Clear
9:38 PM 41.0 °F 36.4 °F 24.8 °F 53% 30.42 in 10.0 mi ESE 6.9 mph - N/A   Clear
9:57 PM 41.0 °F 36.4 °F 24.8 °F 53% 30.42 in 10.0 mi SE 6.9 mph - N/A   Clear
10:17 PM 39.2 °F 33.6 °F 24.8 °F 56% 30.41 in 10.0 mi ESE 8.1 mph - N/A   Clear
10:37 PM 37.4 °F 31.4 °F 24.8 °F 60% 30.41 in 10.0 mi ESE 8.1 mph - N/A   Clear
10:57 PM 37.4 °F 31.4 °F 23.0 °F 56% 30.41 in 10.0 mi SE 8.1 mph - N/A   Clear
11:17 PM 37.4 °F 31.4 °F 23.0 °F 56% 30.41 in 10.0 mi ESE 8.1 mph - N/A   Clear
11:37 PM 37.4 °F 32.1 °F 23.0 °F 56% 30.41 in 10.0 mi ESE 6.9 mph - N/A   Clear
11:57 PM 37.4 °F 32.1 °F 23.0 °F 56% 30.41 in 10.0 mi ESE 6.9 mph - N/A   Clear